FW0288 Weather Reports


time (UTC)temp
F
wind
direction
speed
knots
gust
knots
rain 1hr
in
rain 24hr
in
rain mn
in
humidity
%
barometer
mb
20260901021602 71 262 0.0 2.6 0.00 0.00 0.00 52 1006.9
20260901020051 71 278 0.0 3.5 0.00 0.00 0.00 54 1006.3
20260901014551 71 271 0.0 3.5 0.00 0.00 0.00 54 1006.3
20260901013104 71 277 0.0 6.1 0.00 0.00 0.00 55 1006.3
20260901011610 71 262 0.0 7.0 0.00 0.00 0.00 55 1006.6
20260901010055 71 287 0.0 6.1 0.00 0.00 0.00 55 1006.5
20260901004548 70 240 0.9 11.3 0.00 0.00 0.00 58 1006.8
20260901003050 77 255 3.5 10.4 0.00 0.00 0.00 42 1006.7
20260901001548 79 360 0.9 7.0 0.00 0.00 0.00 35 1005.9
20260901000047 81 317 0.0 0.0 0.00 0.00 0.00 33 1005.7
20260831234556 81 16 0.0 1.7 0.00 0.00 0.00 33 1005.6
20260831233048 82 13 0.0 4.3 0.00 0.00 0.00 32 1005.6
20260831231545 82 46 0.0 4.3 0.00 0.00 0.00 31 1005.6
20260831230043 81 360 0.0 3.5 0.00 0.00 0.00 33 1005.7
20260831224547 82 121 0.9 3.5 0.00 0.00 0.00 31 1006.1
20260831223047 81 69 0.0 1.7 0.00 0.00 0.00 35 1006.2
20260831221559 80 72 0.0 3.5 0.00 0.00 0.00 35 1006.4
20260831220042 81 78 0.0 0.9 0.00 0.00 0.00 33 1006.5
20260831214547 81 360 0.0 3.5 0.00 0.00 0.00 34 1006.6
20260831213040 81 339 0.0 2.6 0.00 0.00 0.00 32 1006.8
20260831211545 81 26 0.0 2.6 0.00 0.00 0.00 33 1007.0
20260831210036 79 360 0.9 7.0 0.00 0.00 0.00 35 1007.3
20260831204538 80 360 0.0 1.7 0.00 0.00 0.00 35 1007.4
20260831203046 79 96 0.0 0.0 0.00 0.00 0.00 38 1007.7
20260831201544 79 94 0.0 0.0 0.00 0.00 0.00 36 1008.0
20260831200034 80 360 0.0 2.6 0.00 0.00 0.00 34 1008.1
20260831194538 79 360 0.0 4.3 0.00 0.00 0.00 39 1008.2
20260831193031 79 46 0.0 4.3 0.00 0.00 0.00 36 1008.4
20260831191530 78 94 0.0 2.6 0.00 0.00 0.00 41 1008.6
20260831190029 79 360 0.0 0.9 0.00 0.00 0.00 42 1008.8
20260831184530 77 38 0.0 1.7 0.00 0.00 0.00 39 1008.9
20260831183026 77 94 0.0 1.7 0.00 0.00 0.00 37 1009.0
20260831181525 77 118 0.0 1.7 0.00 0.00 0.00 41 1009.0
20260831180021 76 360 0.0 2.6 0.00 0.00 0.00 42 1009.1
20260831174521 75 61 0.0 2.6 0.00 0.00 0.00 44 1009.2
20260831173020 75 76 0.0 0.0 0.00 0.00 0.00 43 1009.3
20260831171520 75 360 0.0 0.9 0.00 0.00 0.00 44 1009.3
20260831170019 74 58 0.0 0.0 0.00 0.00 0.00 41 1009.3
20260831164523 75 59 0.0 0.0 0.00 0.00 0.00 42 1009.2
20260831163020 74 60 0.0 0.0 0.00 0.00 0.00 43 1009.1
20260831161514 74 58 0.0 3.5 0.00 0.00 0.00 41 1008.9
20260831160012 74 180 0.0 0.0 0.00 0.00 0.00 45 1008.9
20260831154511 75 204 0.0 0.0 0.00 0.00 0.00 43 1008.8
20260831153009 76 211 0.0 0.0 0.00 0.00 0.00 43 1008.6
20260831151507 74 211 0.0 0.0 0.00 0.00 0.00 46 1008.6
20260831150005 74 205 0.0 0.0 0.00 0.00 0.00 46 1008.7
20260831144501 73 207 0.0 0.0 0.00 0.00 0.00 49 1008.8
20260831143058 71 207 0.0 0.0 0.00 0.00 0.00 56 1008.7
20260831143003 71 207 0.0 0.0 0.00 0.00 0.00 55 1008.7
20260831141554 69 207 0.0 0.0 0.00 0.00 0.00 59 1008.7
20260831140053 66 207 0.0 0.0 0.00 0.00 0.00 63 1008.6
20260831134552 63 207 0.0 0.0 0.00 0.00 0.00 63 1008.3
20260831133044 63 207 0.0 0.0 0.00 0.00 0.00 63 1008.2
20260831131543 63 207 0.0 0.0 0.00 0.00 0.00 60 1008.0
20260831130038 62 207 0.0 0.0 0.00 0.00 0.00 61 1007.8
20260831124536 62 207 0.0 0.0 0.00 0.00 0.00 60 1007.5
20260831123036 63 207 0.0 0.0 0.00 0.00 0.00 58 1007.5
20260831121532 62 207 0.0 0.0 0.00 0.00 0.00 58 1007.2
20260831120039 62 207 0.0 0.0 0.00 0.00 0.00 61 1007.1
20260831114530 62 207 0.0 0.0 0.00 0.00 0.00 58 1007.0
20260831113028 63 208 0.0 0.9 0.00 0.00 0.00 56 1006.8
20260831111528 62 207 0.0 0.9 0.00 0.00 0.00 60 1006.6
20260831110035 62 261 0.0 0.0 0.00 0.00 0.00 60 1006.7
20260831104533 62 259 0.0 0.0 0.00 0.00 0.00 59 1006.8
20260831103124 63 321 0.0 0.0 0.00 0.00 0.00 58 1006.6
20260831101527 63 321 0.0 0.9 0.00 0.00 0.00 59 1006.7
20260831100022 64 252 0.0 0.0 0.00 0.00 0.00 55 1006.4
20260831094521 64 250 0.0 2.6 0.00 0.00 0.00 55 1006.2
20260831093021 64 244 0.0 0.9 0.00 0.00 0.00 53 1006.0
20260831091535 64 245 0.0 0.0 0.00 0.00 0.00 55 1005.7
20260831090117 64 245 0.0 0.0 0.00 0.00 0.00 60 1005.7
20260831084515 64 175 0.0 0.0 0.00 0.00 0.00 63 1005.7
20260831083013 65 176 0.0 0.0 0.00 0.00 0.00 62 1005.9
20260831081532 66 176 0.0 0.0 0.00 0.00 0.00 60 1006.0
20260831080018 66 360 0.0 0.0 0.00 0.00 0.00 59 1006.1
20260831074505 67 175 0.0 0.0 0.00 0.00 0.00 57 1006.2
20260831073005 68 176 0.0 0.0 0.00 0.00 0.00 54 1006.4
20260831071601 68 182 0.0 0.0 0.00 0.00 0.00 51 1006.7
20260831070100 69 182 0.0 0.9 0.00 0.00 0.00 49 1006.8
20260831064557 69 180 0.0 3.5 0.00 0.00 0.00 46 1006.6
20260831063056 68 171 0.0 0.0 0.00 0.00 0.00 51 1006.7
20260831061553 69 274 0.0 2.6 0.00 0.00 0.00 48 1006.5
20260831060054 69 274 0.0 6.1 0.00 0.00 0.00 48 1006.7
20260831054552 69 263 0.0 7.0 0.00 0.00 0.00 48 1006.9
20260831053050 69 360 0.0 4.3 0.00 0.00 0.00 47 1007.2
20260831051550 71 360 1.7 12.2 0.00 0.00 0.00 46 1007.3
20260831050048 72 219 4.3 13.9 0.00 0.00 0.00 43 1007.9
20260831044556 72 275 0.9 9.6 0.00 0.00 0.00 44 1007.8
20260831043047 69 171 0.0 1.7 0.00 0.00 0.00 51 1007.8
20260831041554 68 223 0.0 0.0 0.00 0.00 0.00 60 1007.3
20260831040041 68 223 0.0 0.0 0.00 0.00 0.00 60 1006.8
20260831034541 68 223 0.0 0.0 0.00 0.00 0.00 61 1006.7
20260831033043 68 215 0.0 0.0 0.00 0.00 0.00 63 1006.6
20260831031538 67 188 0.0 0.0 0.00 0.00 0.00 65 1006.5
20260831030037 67 186 0.0 0.0 0.00 0.00 0.00 64 1006.6
20260831024536 68 186 0.0 0.0 0.00 0.00 0.00 64 1006.3
20260831023035 68 186 0.0 0.0 0.00 0.00 0.00 63 1006.3